Location: Apeadero de Los Molinos-Guadarrama
(40.7091°N, 4.0689°W)
Time: 13:29:08
(UTC+00:00)

ISS - Pass Details

Date: 29 September 2021
Orbit: 417 x 423 km, 51.6° (Epoch: 28 October)

Event Time Altitude Azimuth Distance (km) Brightness Sun altitude
Rises 19:48:28 0° 311° (NW) 2,366 1.2 -20.9°
Reaches altitude 10° 19:50:50 10° 326° (NW) 1,502 -0.3 -21.4°
Enters shadow 19:53:00 22° 4° (N) 959 -1.9 -21.8°
